Annette Island, AK

8:51 AM AKDT on August 21, 2017 (GMT -0800)
Annette Island

Weather History for PANT - April, 2013

Change the Weather History Date:

Saturday, April 6, 2013

  Actual Average Record
Temperature  
Mean Temperature 47 °F 43 °F  
Max Temperature 50 °F 48 °F 65 °F (1966)
Min Temperature 44 °F 37 °F 27 °F (1965)
Degree Days  
Heating Degree Days 18 22  
Month to date heating degree days 125 136  
Since 1 July heating degree days 5463 5458  
Cooling Degree Days 0    
Month to date cooling degree days 0  
Year to date cooling degree days 0  
Moisture  
Dew Point 41 °F    
Average Humidity 0    
Maximum Humidity 0    
Minimum Humidity 0    
Precipitation  
Precipitation 0.04 in 0.25 in 2.42 in (1949)
Month to date precipitation 0.19 1.51  
Year to date precipitation 26.11 27.60  
Snow  
Snow 0.00 in 0.00 in 6.00 in (1956)
Month to date snowfall 0.0 0.5  
Since 1 July snowfall 12.8 33.9  
Snow Depth 0.00 in    
Sea Level Pressure  
Sea Level Pressure 29.54 in    
Wind  
Wind Speed 9 mph (SE)    
Max Wind Speed 17 mph    
Max Gust Speed 24 mph    
Visibility 9 miles    
Events Rain    
T = Trace of Precipitation, MM = Missing Value Source: NWS Daily Summary

Daily Weather History Graph

Daily Weather History Graph

Search for Another Location

Airport or City:

Trip Planner

Search our weather history database for the weather conditions in past years. The results will help you decide how hot, cold, wet, or windy it might be!

Date:

Astronomy

Apr. 06, 2013 Rise Set
Actual Time 6:04 AM AKDT 7:34 PM AKDT
Civil Twilight 5:26 AM AKDT 8:11 PM AKDT
Nautical Twilight 4:40 AM AKDT 8:58 PM AKDT
Astronomical Twilight 3:48 AM AKDT 9:51 PM AKDT
Moon 4:26 AM AKDT (4/6) 3:40 PM AKDT (4/6)
Length of Visible Light 14h 45m
Length of Day
13h 29m
Waning Crescent, 14% of the Moon is Illuminated
Apr 6
Waning Crescent
Apr 10
New
Apr 18
First Quarter
Apr 25
Full
May 2
Last Quarter

Hourly Weather History & Observations

Time (AKDT) Temp. Windchill Dew Point Humidity Pressure Visibility Wind Dir Wind Speed Gust Speed Precip Events Conditions
12:53 AM 48.0 °F - 41.0 °F 77% 29.43 in 10.0 mi ESE 8.1 mph - 0.01 in Rain Light Rain
1:53 AM 48.9 °F - 41.0 °F 74% 29.42 in 10.0 mi East 8.1 mph 17.3 mph 0.00 in Rain Light Rain
2:53 AM 46.9 °F - 41.0 °F 80% 29.40 in 10.0 mi Calm Calm - 0.00 in Rain Light Rain
3:53 AM 48.9 °F - 39.0 °F 69% 29.39 in 10.0 mi East 6.9 mph 18.4 mph 0.00 in   Overcast
4:53 AM 48.9 °F - 39.9 °F 71% 29.38 in 10.0 mi East 9.2 mph - 0.00 in Rain Light Rain
5:53 AM 48.9 °F - 39.0 °F 69% 29.38 in 10.0 mi East 9.2 mph 20.7 mph 0.00 in   Overcast
6:53 AM 48.9 °F - 39.9 °F 71% 29.39 in 10.0 mi ESE 9.2 mph 19.6 mph 0.00 in Rain Light Rain
7:44 AM 48.2 °F - 39.2 °F 71% 29.40 in 10.0 mi ESE 13.8 mph 18.4 mph 0.00 in   Overcast
7:53 AM 48.0 °F - 39.9 °F 74% 29.41 in 10.0 mi SE 16.1 mph 21.9 mph 0.00 in   Overcast
8:53 AM 45.0 °F 39.7 °F 42.1 °F 90% 29.45 in 4.0 mi SE 10.4 mph 18.4 mph 0.02 in Rain Light Rain
8:58 AM 44.6 °F 38.4 °F 42.8 °F 93% 29.45 in 3.0 mi SSE 12.7 mph 17.3 mph 0.00 in Rain Light Rain
9:04 AM 44.6 °F 38.4 °F 42.8 °F 93% 29.45 in 1.8 mi SE 12.7 mph 18.4 mph 0.01 in Rain Light Rain
9:11 AM 44.6 °F 38.1 °F 42.8 °F 93% 29.46 in 2.5 mi SE 13.8 mph 20.7 mph 0.02 in Rain Light Rain
9:18 AM 44.6 °F 38.1 °F 42.8 °F 93% 29.46 in 6.0 mi SE 13.8 mph 21.9 mph 0.02 in Rain Light Rain
9:28 AM 44.6 °F 38.8 °F 42.8 °F 93% 29.47 in 10.0 mi SE 11.5 mph 20.7 mph 0.02 in   Overcast
9:53 AM 45.0 °F 39.3 °F 42.1 °F 90% 29.49 in 10.0 mi SSE 11.5 mph 20.7 mph 0.02 in   Overcast
10:01 AM 44.6 °F 38.4 °F 42.8 °F 93% 29.49 in 10.0 mi SSE 12.7 mph 23.0 mph N/A   Overcast
10:53 AM 48.0 °F - 42.1 °F 80% 29.52 in 10.0 mi SSE 12.7 mph 21.9 mph N/A   Mostly Cloudy
11:53 AM 48.9 °F - 39.9 °F 71% 29.56 in 10.0 mi SSE 8.1 mph 19.6 mph N/A   Mostly Cloudy
12:53 PM 48.0 °F - 39.9 °F 74% 29.60 in 10.0 mi SSE 10.4 mph 20.7 mph N/A   Overcast
1:53 PM 48.0 °F - 41.0 °F 77% 29.63 in 10.0 mi SSE 11.5 mph 23.0 mph N/A   Overcast
2:53 PM 48.0 °F - 39.9 °F 74% 29.66 in 10.0 mi SSE 12.7 mph 20.7 mph N/A   Overcast
3:53 PM 48.0 °F - 39.9 °F 74% 29.68 in 10.0 mi SSE 11.5 mph - N/A   Mostly Cloudy
4:53 PM 48.0 °F - 39.9 °F 74% 29.69 in 10.0 mi SSE 9.2 mph - N/A   Mostly Cloudy
5:53 PM 48.0 °F - 39.9 °F 74% 29.71 in 10.0 mi SSE 6.9 mph - N/A   Scattered Clouds
6:53 PM 46.0 °F 41.9 °F 41.0 °F 83% 29.72 in 10.0 mi SE 8.1 mph - N/A   Overcast
7:53 PM 46.0 °F 42.5 °F 39.9 °F 79% 29.73 in 10.0 mi ESE 6.9 mph - N/A   Overcast
8:53 PM 45.0 °F 41.2 °F 39.0 °F 80% 29.75 in 10.0 mi SE 6.9 mph - N/A   Clear
9:53 PM 44.1 °F 40.8 °F 39.0 °F 82% 29.76 in 10.0 mi SE 5.8 mph - N/A   Clear
10:53 PM 44.1 °F 40.8 °F 39.0 °F 82% 29.76 in 10.0 mi SE 5.8 mph - N/A   Clear
11:53 PM 44.1 °F 41.5 °F 39.0 °F 82% 29.78 in 10.0 mi ESE 4.6 mph - N/A   Partly Cloudy